STARLINK-11393, 62016

Orbit data source: Space-Track

STARLINK-11393, 62016 is a payload satellite owned by SpaceX/Seattle (US) in LEO that was launched on Mon, 18 Nov 2024 UTC via an FALCON 9 launch vehicle from the Air Force Western Test Range (AFWTR). Payload-class satellites include a variety of spacecraft equipped with specific instruments for various scientific and technological missions. These include communications satellites like Starlink; space stations such as the ISS; scientific satellites like the Hubble; Earth observation satellites from companies like Planet Labs, Umbra, and HawkEye 360; GPS; miniature CubeSats for education and research; and military/defense satellites.

Loading next visibility...
Identifier
62016, 2024-213J
Orbit
LEO
Last TLE update
1 day ago
Origin
Manufacturer
SpaceX/Seattle
Mission
Operational Commercial Communications
Bus & Motor
STARLINK V2M, Unknown motor
Mass
730 kg wet, ~700 kg dry
Launch date (UTC)
2024-11-18 (6 months ago)
Launch vehicle
FALCON 9
Launch site
Air Force Western Test Range (AFWTR)
Object type
Payload
Rocket body
Debris
Shape & HBR
Box + 2 Pan, 29 m
Radar Cross Section
36.964 m², Large (>1 m²)

Expand to show TLE details & history

TLE from 1 day ago
0 STARLINK-11393
1 62016U 24213J   25128.23351819 -.00000695  00000-0 -88155-6 0  9992
2 62016  53.1576 106.7715 0001143  88.0141 272.1008 15.69712782 26941
Epoch: 2025-05-08T05:36Z
Definitive object data (Epoch: 2025-05-08T05:36:15.971Z)
Latitude
-0.00001°
Longitude
156.39799°
Altitude
360.605 km
Speed
7.694 km/s
True Right ascension
07h 07m 05s
True Declination
0° 00' 00"
Sunlit
Object was in daylight at TLE epoch
Visualization TLE readout
Latitude
-10.67195°
Longitude
143.00103°
Altitude
362.824 km
Speed
7.692 km/s
Apparent Right ascension
05h 08m 53s
Apparent Declination
-25° 58' 27"
Sunlit
Object is in daylight
Visualization observer readout
Local Sidereal Time
15:40:30
Azimuth
300.42° NW
Elevation
-66.911°
Doppler factor
1
Orbital elements
Apogee altitude
360.75 km
Perigee altitude
359.21 km
Semi-major axis
6,738.117 km
Eccentricity
0.0001143
Inclination
53.1576°
RAAN
106.7715°
Arg. of periapsis
88.0141°
True anomaly
272.08771°
Mean anomaly
272.1008°
Eccentric anomaly
272.09426°
Mean motion
3.92406 °/min
BSTAR
-8.8155e-7
Orbital period
91.74 mins
Loading maneuver chart data...
Loading SW <> Apogee altitude chart data...
Loading historical data...
Loading historical data...
Loading historical data...
Loading historical data...
Loading historical data...
Loading historical data...
Loading historical data...

STARLINK-11393 Visibility forecast

Observer location: undefined°, undefined°

Span
Click to sort rows by Start time (UTC) header in descending order
Start Az.
Max El. time (UTC)
Max El. Az.
Max El.
End time (UTC)
End Az.
5 mins2025-05-09 08:04:29.854Z307.195° NW2025-05-09 08:07:29.854Z185.645° SSW43.808°2025-05-09 08:09:29.854Z136.902° SSE
4 mins2025-05-10 00:34:29.854Z207.446° SW2025-05-10 00:36:29.854Z115.315° SE37.742°2025-05-10 00:38:29.854Z61.87° ENE
4 mins2025-05-10 06:59:29.854Z341.928° N2025-05-10 07:00:29.854Z13.441° NNE28.274°2025-05-10 07:03:29.854Z101.137° ESE
|